Wind_Speed
26 26 25 25 24 24 23 23 22 21 21 20 19 18 17 16 15 14 13 12 12 11 11 11 11 11 10 8 8 10 10 10 11 13 14 15 17 18 19 21 22 23 24 25 25 25 25 25 25 26 27 25 20 13 4 5 11 13 12 13 15 15 15 15 16 15 15 15 15 14 13 12 12 12 12 12 12 12 12 12 12 12 13 14 14 14 14 14
28 28 28 27 27 27 26 25 25 24 24 23 22 22 20 19 18 17 16 15 14 13 12 12 12 12 11 10 8 8 9 9 9 10 12 13 14 15 17 18 20 21 23 24 25 25 25 25 25 26 27 27 24 18 9 1 8 13 14 15 15 14 14 14 14 13 13 13 12 12 11 11 11 11 11 12 12 12 12 12 12 12 12 13 12 12 12 12
31 31 30 30 30 29 29 28 28 27 27 26 26 25 24 22 21 20 19 19 18 16 14 13 14 14 13 12 9 7 8 9 9 9 10 11 12 13 14 16 17 18 20 22 23 24 25 25 25 25 26 28 27 22 14 6 3 11 16 16 15 14 13 13 12 11 10 10 11 10 10 10 10 10 11 12 12 12 12 11 10 10 10 9 9 9 9 9
33 33 33 33 32 32 32 31 31 30 30 29 29 28 27 26 25 24 23 22 21 20 18 16 16 16 16 14 12 10 8 8 9 9 8 9 11 12 12 13 14 16 17 19 21 23 24 25 25 25 25 27 28 25 19 11 3 6 13 16 16 14 13 11 9 8 8 8 9 9 9 10 10 11 12 13 13 12 11 9 7 6 6 6 6 6 6 6
35 35 35 35 34 34 34 33 33 33 32 32 32 32 31 30 29 28 26 26 25 24 23 20 18 18 18 17 15 13 10 9 9 10 10 8 10 11 11 12 12 13 14 16 18 20 22 23 24 25 25 26 28 28 23 16 8 3 10 14 14 13 12 10 8 7 7 7 7 8 9 10 11 11 12 11 10 9 7 4 2 3 3 4 5 5 5 5
35 35 35 35 35 35 35 35 34 34 34 35 34 34 33 33 32 31 30 29 28 28 27 25 23 21 20 19 18 16 13 12 10 10 11 10 9 10 11 11 11 12 12 13 15 17 19 21 23 24 24 25 26 28 26 20 12 5 6 9 10 11 10 9 8 7 6 6 7 9 9 10 10 10 8 7 5 4 2 1 1 2 3 4 5 5 6 5
36 36 36 35 35 35 35 35 35 35 35 36 36 36 35 35 35 34 33 33 32 31 30 29 28 25 24 22 21 19 16 15 13 11 12 12 11 10 11 11 11 11 11 11 12 14 16 18 20 22 23 23 25 27 27 23 16 9 6 5 6 7 7 8 8 7 6 8 9 10 10 10 9 8 6 5 4 4 3 3 4 5 5 5 6 6 5 4
39 39 39 38 38 37 36 36 35 35 35 36 37 37 36 36 36 36 35 35 34 34 34 33 32 30 28 25 24 21 18 18 16 13 13 13 13 12 11 12 12 11 11 10 10 11 13 15 17 19 21 22 23 25 26 25 20 13 7 5 5 6 6 7 6 6 7 9 10 10 9 8 8 7 6 5 5 5 6 6 6 6 6 5 5 4 4 3
43 43 42 42 41 40 39 39 38 37 37 37 37 37 37 37 37 37 37 36 36 36 36 36 35 34 32 29 27 24 21 22 19 17 15 13 14 14 13 12 13 12 11 11 10 10 10 12 14 16 18 20 20 22 24 24 22 17 11 6 5 6 6 6 6 6 8 9 9 9 9 8 8 6 6 7 7 7 7 7 6 5 4 3 3 3 3 3
46 46 46 45 45 44 43 43 42 41 40 40 39 39 38 37 37 38 38 37 36 37 37 38 38 37 36 33 30 25 25 26 23 20 19 16 15 16 15 14 13 13 13 11 10 10 9 9 11 13 15 17 18 19 21 23 22 19 14 9 6 6 7 6 5 6 8 9 9 10 10 8 8 8 7 8 8 8 7 6 5 2 1 2 3 4 4 5
48 48 48 48 48 47 47 46 46 45 44 44 43 42 41 40 39 39 38 38 37 37 37 38 39 39 39 38 33 27 29 31 27 23 22 20 18 17 17 16 15 15 14 13 11 10 9 8 9 10 12 14 16 16 17 19 21 20 16 12 8 8 9 8 6 7 9 10 11 11 11 10 10 9 8 7 8 7 6 6 4 2 1 2 3 5 6 8
52 51 51 51 51 50 50 49 49 48 48 48 47 46 45 44 43 41 41 40 39 39 38 38 39 40 40 39 35 32 35 35 29 26 25 25 22 20 20 19 18 17 16 15 13 12 10 9 7 8 9 11 13 14 14 15 18 19 17 14 11 10 11 10 8 8 9 10 12 12 12 11 11 10 8 7 7 6 5 5 4 3 3 3 5 6 9 10
55 55 55 55 54 54 53 53 52 51 51 51 50 50 49 48 47 45 44 43 42 41 40 40 40 40 40 39 36 36 39 37 32 30 28 27 26 23 23 22 20 19 18 18 16 14 12 10 8 6 7 8 9 11 12 12 13 15 16 15 13 11 11 11 9 8 9 10 12 13 13 12 12 10 8 8 8 6 4 5 5 5 5 5 6 8 11 13
58 58 58 57 57 57 57 57 56 55 55 55 54 54 53 52 51 49 48 46 45 44 43 43 42 42 40 39 38 39 40 38 33 32 31 30 29 27 26 25 23 22 21 21 19 17 14 12 10 7 6 6 6 7 9 10 10 10 13 14 13 11 11 11 10 10 10 10 12 13 14 13 12 11 9 9 8 7 6 6 7 7 7 8 10 13 16 18
60 60 60 60 60 60 60 60 59 58 58 58 58 57 57 56 55 53 51 50 49 48 47 46 45 45 42 40 41 40 40 38 34 33 33 33 32 30 29 28 27 25 23 23 22 20 18 16 13 10 7 6 5 5 5 7 8 8 8 11 11 11 11 12 11 11 11 11 12 13 14 14 12 10 10 10 9 9 9 8 8 9 9 11 14 17 19 20
63 63 63 62 62 62 63 63 63 62 61 61 61 60 60 59 59 58 56 54 53 52 50 49 48 47 46 43 43 42 41 39 36 34 35 35 34 32 31 31 30 28 26 26 25 23 21 19 17 14 10 8 7 5 4 4 5 6 6 6 8 9 10 11 11 11 12 12 13 14 15 14 12 11 11 11 10 10 10 9 10 11 12 12 13 16 18 18
62 63 64 64 64 64 65 65 65 64 64 64 64 63 63 62 61 61 60 58 56 55 54 53 51 50 49 47 45 45 44 42 38 35 36 36 35 34 33 33 32 32 30 29 28 27 24 23 21 18 14 11 9 8 6 4 2 3 4 4 4 7 7 8 10 10 12 13 14 15 15 13 11 10 10 10 10 11 11 11 12 12 12 12 11 11 13 14
57 59 61 62 63 64 65 66 66 66 66 67 67 66 65 65 64 63 63 61 60 59 57 57 55 53 52 50 48 48 48 46 42 38 37 37 36 35 34 33 33 34 34 32 32 30 28 26 24 22 19 15 12 11 9 6 4 2 2 4 3 3 5 5 6 7 8 12 15 16 15 12 10 9 9 10 11 12 12 12 12 11 11 11 10 9 9 10
51 53 55 56 58 60 62 64 65 67 67 68 69 69 68 68 67 66 66 65 63 61 60 60 59 57 56 53 51 51 51 50 46 42 40 38 37 36 35 34 34 35 35 35 35 34 31 29 27 26 23 18 16 15 12 10 8 6 3 2 4 2 2 3 3 2 4 8 13 15 15 13 11 9 9 10 11 12 13 13 11 10 9 9 9 9 8 8
45 47 49 51 52 54 56 59 60 63 65 66 68 69 70 70 70 70 69 68 66 64 63 62 62 61 59 57 56 55 54 53 50 46 43 41 39 37 36 35 35 35 36 36 37 37 35 32 31 31 27 23 20 18 16 14 11 9 7 5 4 4 3 2 2 1 1 3 8 12 14 14 12 10 9 8 9 11 12 12 11 9 8 8 8 8 8 8
40 42 44 45 47 48 51 53 55 57 60 62 64 65 67 69 70 71 72 72 70 68 66 64 64 65 62 60 59 58 58 57 55 51 47 45 42 39 38 37 36 36 36 37 38 39 36 34 36 35 31 27 24 22 20 18 15 13 11 9 7 6 6 5 4 3 3 2 5 8 12 13 12 10 8 5 6 8 9 10 9 8 7 7 8 8 8 9
39 39 40 41 41 42 45 47 49 52 55 57 59 61 63 65 67 69 71 73 73 71 69 67 66 67 65 63 62 62 62 61 58 55 52 50 47 43 41 40 39 38 38 38 38 39 36 37 40 37 33 30 26 26 25 22 19 17 15 13 11 9 8 8 7 5 5 4 4 6 9 11 11 9 8 6 5 7 7 8 8 8 7 6 7 8 9 9
40 40 40 40 39 38 39 42 43 46 49 52 54 57 59 61 62 64 66 70 73 72 71 71 69 69 68 66 65 64 65 65 62 59 57 54 52 48 45 43 42 41 39 39 40 39 38 40 43 39 33 31 29 29 28 25 23 21 20 17 15 13 11 10 9 8 7 6 5 5 7 8 8 8 8 8 7 7 7 7 6 6 7 7 7 7 8 8
43 44 44 43 41 38 38 39 39 41 44 46 49 52 55 57 59 61 62 65 69 69 69 71 71 71 71 70 68 66 67 68 65 63 60 58 56 53 50 48 46 43 41 42 42 41 40 43 45 40 34 31 31 32 31 29 27 25 24 21 19 17 14 13 12 10 9 8 7 7 7 7 7 8 9 10 10 9 8 8 7 7 7 7 7 7 7 7
45 46 47 47 46 43 41 40 39 40 41 42 44 46 49 52 54 58 60 61 65 67 65 67 70 71 72 72 72 70 69 69 69 66 64 62 61 58 56 53 50 46 45 45 44 44 43 44 47 42 35 33 33 33 34 33 31 28 27 26 24 21 17 16 15 13 12 10 8 8 8 8 9 9 10 10 11 11 11 10 10 10 9 9 8 7 7 8
44 46 48 49 49 48 46 44 44 43 42 42 42 42 43 46 48 52 55 57 61 65 64 63 66 68 70 72 74 74 72 70 70 70 68 67 65 63 60 57 54 51 49 48 46 47 45 45 50 45 37 35 34 35 37 36 34 32 31 30 28 24 21 20 19 17 15 12 10 11 11 11 11 11 11 11 12 12 12 12 12 12 12 11 10 9 9 9
44 45 48 49 51 51 49 47 47 47 47 46 44 42 41 42 43 46 50 51 54 60 63 62 63 65 66 69 72 75 75 72 71 71 72 71 68 66 64 61 59 56 54 52 50 49 48 49 53 49 40 38 36 37 40 40 38 37 35 33 30 27 25 24 23 20 18 14 13 14 13 13 13 13 13 13 13 13 13 14 14 14 14 13 13 12 11 10
46 46 48 50 51 52 52 50 49 48 49 49 48 47 44 42 41 42 45 45 47 53 58 60 63 63 64 66 69 73 75 75 73 72 74 73 71 70 68 65 64 62 59 57 54 53 53 54 56 53 45 41 39 41 44 43 42 41 37 33 31 29 28 27 25 23 20 16 16 18 16 15 15 15 15 16 16 16 15 15 15 15 15 16 15 14 13 12
48 48 49 52 52 53 54 53 51 50 50 50 50 50 50 48 45 43 42 42 44 48 51 55 60 63 63 64 66 68 72 74 75 74 75 75 73 73 72 70 69 67 63 62 59 56 57 57 58 57 50 44 44 46 45 44 45 43 39 33 31 30 29 29 27 25 23 19 19 22 21 19 17 16 17 18 19 17 16 16 16 17 17 17 16 15 14 13
52 51 51 53 55 55 56 55 53 53 52 51 51 52 52 52 51 48 44 45 48 48 47 50 55 61 63 63 63 65 68 71 73 74 76 77 76 76 75 73 73 70 67 66 63 59 59 60 61 60 54 49 49 48 46 47 47 45 41 34 31 30 29 29 29 28 26 22 22 25 25 22 20 20 21 22 20 17 17 18 19 19 18 17 15 15 15 15
55 55 54 55 57 58 59 58 56 55 54 53 54 54 54 53 54 52 49 53 56 51 47 48 51 57 61 62 62 63 64 67 69 72 75 77 78 77 78 77 75 74 71 69 66 63 62 63 63 63 59 55 53 50 50 50 48 48 45 37 33 31 30 29 28 28 26 23 25 29 28 25 24 25 25 24 21 18 20 22 20 19 19 18 16 16 17 17
59 58 58 58 59 62 62 61 61 59 57 57 57 57 56 55 54 53 53 57 60 55 51 49 49 53 57 60 62 62 63 65 66 69 72 76 79 79 80 79 78 77 74 73 72 69 66 67 67 66 64 61 57 54 55 53 50 52 49 41 37 34 32 30 29 29 28 27 30 33 30 28 30 29 26 26 23 22 24 25 22 20 20 20 20 20 19 19
63 62 61 60 61 64 65 64 65 64 62 63 63 61 60 57 54 54 56 59 61 61 57 51 47 49 52 55 59 61 63 65 65 67 69 73 77 79 81 82 80 79 78 77 76 73 70 71 71 69 67 65 61 59 58 55 53 55 53 46 42 39 35 33 31 32 31 31 36 38 32 31 36 32 27 28 28 25 26 27 25 23 23 25 24 22 21 20
66 65 65 64 64 66 68 68 69 68 67 66 67 66 63 59 56 58 60 61 63 66 62 56 51 48 48 50 54 58 62 64 65 66 67 69 72 77 81 83 83 83 82 80 78 76 74 74 73 70 70 69 65 63 61 59 58 58 56 52 48 44 40 38 37 37 36 36 41 41 33 34 42 38 30 30 30 26 26 30 30 28 28 28 25 23 23 22
70 69 68 68 68 69 71 72 73 73 71 69 70 69 65 62 62 64 63 64 66 68 67 63 57 51 47 47 50 54 59 62 64 66 66 67 69 73 78 82 85 86 85 82 80 79 78 77 75 74 75 74 71 68 66 64 62 60 60 57 52 48 45 45 43 41 41 42 44 43 35 38 47 41 33 32 32 29 30 33 34 32 31 29 27 26 26 25
75 74 72 72 72 74 75 76 77 77 75 74 73 71 67 66 68 68 66 67 68 69 70 69 62 55 51 48 47 51 55 58 62 65 66 67 67 69 73 79 84 87 87 85 84 83 81 80 79 78 78 76 75 74 72 70 66 64 64 59 54 52 50 49 46 44 44 43 43 43 39 42 48 41 34 35 35 34 35 36 36 34 33 31 30 29 28 28
79 79 78 76 77 78 79 80 81 81 80 79 76 73 71 72 73 73 71 71 71 71 73 72 67 62 58 54 50 49 50 54 58 62 65 67 67 69 71 75 80 86 88 88 87 86 84 84 82 81 81 80 79 79 77 74 71 68 66 61 59 59 54 52 50 48 47 43 43 45 43 45 48 39 35 38 39 38 39 39 38 36 34 34 33 31 30 31
83 84 83 82 82 83 84 85 86 86 85 84 80 77 77 77 78 79 78 76 74 72 73 74 72 69 66 62 57 51 49 51 54 57 62 65 67 69 71 73 77 82 87 89 89 89 88 87 84 83 85 84 84 85 81 77 74 71 69 66 65 63 58 56 55 51 47 44 43 46 46 47 48 41 38 41 41 41 41 41 40 38 37 37 35 34 34 34
88 89 89 88 88 87 88 89 90 91 91 89 85 83 83 83 83 84 84 81 78 74 73 75 75 74 71 68 62 57 54 51 50 54 58 62 66 68 70 73 75 79 84 87 89 90 90 90 87 86 88 88 87 87 83 78 76 74 72 70 68 66 62 61 58 53 50 48 46 47 47 48 51 47 43 44 44 44 43 43 42 40 39 38 38 37 37 37
93 94 94 93 93 92 92 92 93 94 95 94 92 89 87 87 87 88 88 86 82 77 75 76 77 76 75 73 68 63 59 54 50 51 55 58 63 67 70 73 75 78 81 84 87 90 91 92 91 90 91 91 88 86 83 79 79 77 74 73 71 69 67 65 60 55 54 51 48 49 48 50 55 53 48 47 46 45 44 44 43 41 40 40 40 41 40 40
99 99 98 98 98 98 98 97 97 98 99 99 97 94 91 89 89 90 91 89 85 80 78 77 78 78 78 76 72 68 65 59 54 52 52 55 60 65 69 73 75 77 80 81 83 87 90 93 94 93 93 91 88 85 84 83 83 81 78 77 75 72 71 68 62 58 56 52 48 48 49 52 57 56 51 49 47 47 46 45 44 43 43 43 43 43 43 42
105 105 105 105 105 105 105 104 103 104 103 102 101 98 94 91 90 91 91 91 88 83 81 79 79 79 79 78 76 73 69 65 59 53 52 54 57 63 68 72 75 77 78 79 80 84 88 92 95 96 94 92 90 88 88 89 88 86 83 81 80 77 75 71 64 60 59 54 51 51 51 53 57 57 55 53 51 50 49 47 47 46 46 46 45 45 45 44
110 111 111 112 111 111 111 109 108 108 107 105 103 101 97 94 92 92 91 92 90 87 84 82 80 80 81 80 79 76 73 69 63 57 54 54 56 61 67 71 74 76 77 78 80 82 85 88 93 96 95 94 94 94 92 92 91 90 86 83 82 79 76 72 67 65 63 58 56 55 51 52 58 60 59 58 56 54 52 50 50 48 48 48 47 47 47 46
115 114 115 115 114 114 114 113 112 111 109 107 105 102 99 97 95 93 93 93 92 90 87 84 82 82 82 82 81 79 76 72 67 62 58 56 56 60 65 69 72 75 77 79 79 80 82 85 89 94 95 96 98 97 93 92 92 90 86 83 81 79 76 74 71 70 67 62 60 57 51 53 60 62 62 62 59 57 55 53 52 50 49 50 50 49 48 47
117 116 117 117 116 115 116 116 115 114 112 110 108 105 103 100 98 97 96 95 94 93 90 86 85 83 83 83 82 81 79 75 70 67 62 59 58 61 64 67 70 74 77 79 79 79 80 82 85 89 93 96 97 96 93 92 91 89 86 84 82 81 79 77 76 74 69 63 62 58 53 56 60 61 64 66 63 61 59 56 54 53 51 51 52 51 50 49
119 118 119 120 119 118 118 119 118 117 116 114 111 109 107 104 101 99 98 97 96 95 92 89 87 85 84 83 82 81 80 77 74 71 67 63 62 63 64 65 69 73 76 78 79 79 79 80 81 85 89 92 95 95 95 95 94 93 91 89 86 85 83 81 81 78 71 67 66 60 56 58 58 59 64 67 66 64 63 61 58 56 54 53 53 53 52 51
121 121 121 122 122 121 121 121 120 119 118 116 114 112 110 107 104 101 100 99 99 98 96 93 90 87 85 84 83 81 81 80 78 74 70 67 65 64 64 64 67 71 75 77 79 79 79 78 79 82 85 88 92 95 97 98 98 96 95 93 91 90 88 86 84 80 74 72 68 63 60 59 58 58 63 67 69 67 66 65 62 59 57 55 54 54 54 54
123 122 123 123 123 123 123 122 121 120 119 117 115 113 112 109 106 103 101 101 101 100 98 95 92 89 87 86 84 82 82 83 79 75 73 70 67 66 65 64 65 69 73 76 78 78 78 77 78 80 82 85 89 93 97 99 100 99 98 96 94 93 91 90 87 82 79 76 70 66 65 62 60 61 64 67 70 69 69 68 65 62 60 58 56 55 55 56
125 124 124 123 123 124 124 123 122 120 119 118 116 113 111 110 108 105 103 101 101 100 99 96 94 92 90 88 86 84 83 83 81 78 75 73 70 69 67 64 64 67 71 74 76 77 77 77 77 79 80 83 86 90 94 98 100 101 100 98 97 95 94 91 88 85 83 80 74 71 70 66 63 65 67 69 72 71 70 69 66 64 62 60 58 58 57 57
124 124 123 123 122 123 124 124 122 120 119 118 116 114 112 111 109 106 103 101 100 100 100 99 98 95 93 90 87 84 83 83 83 81 78 74 73 72 69 66 65 66 68 70 72 75 76 76 77 77 78 80 83 86 90 95 99 101 101 100 99 97 96 93 90 86 84 81 77 75 72 68 66 67 70 72 74 73 71 69 67 66 65 62 61 60 60 59
118 118 118 118 118 118 119 120 120 118 117 117 116 114 113 112 110 106 102 101 101 102 103 101 99 95 92 89 87 85 84 84 83 82 79 77 76 75 71 68 65 65 66 68 70 73 74 74 76 76 75 77 81 85 89 92 97 101 102 101 100 99 97 94 90 87 84 81 79 77 73 69 67 69 71 73 74 73 72 70 69 68 66 65 64 63 62 61
107 107 107 107 108 109 111 112 113 113 113 113 113 113 112 112 111 108 105 103 103 104 103 102 99 95 93 91 89 86 84 82 82 82 81 79 78 76 74 71 67 65 66 67 69 71 73 73 75 76 75 75 78 83 87 90 95 98 100 99 98 97 96 93 90 88 85 83 81 77 73 72 71 71 73 74 73 72 72 71 71 70 68 67 66 64 63 63
Wind_Direction
255 255 256 258 259 260 261 262 264 265 267 268 269 269 269 269 270 272 275 279 285 292 299 304 310 318 327 344 357 0 8 18 24 27 28 27 30 34 35 34 34 36 36 34 31 30 31 35 39 41 42 39 33 25 7 223 209 206 213 219 217 213 209 208 208 210 211 211 212 213 217 224 229 232 233 233 233 235 239 240 241 242 243 244 246 249 251 255
257 257 258 259 259 260 261 262 263 264 265 266 267 267 269 269 270 271 271 271 272 276 284 292 296 302 310 320 336 347 351 0 10 17 20 21 23 28 31 32 31 32 33 32 30 27 26 29 33 37 40 40 37 32 26 299 205 197 203 210 213 211 206 207 209 209 211 211 211 213 215 221 227 232 235 236 240 245 248 247 245 245 245 245 247 249 253 254
258 259 259 260 260 261 261 262 263 264 265 265 266 266 266 267 268 269 270 270 270 269 270 277 286 291 296 304 313 326 335 342 350 358 8 10 13 20 24 28 29 29 30 30 30 27 24 24 28 32 36 40 39 36 33 23 211 195 197 202 206 208 206 206 206 204 208 212 212 212 213 218 223 230 236 240 244 247 247 244 243 243 244 246 247 249 251 251
260 260 260 260 261 261 262 262 263 264 264 265 266 267 267 266 266 266 267 269 270 270 268 268 274 281 286 291 298 306 316 326 332 336 349 358 359 6 14 20 24 26 27 28 28 27 24 22 23 27 32 37 39 37 36 34 31 188 193 199 200 202 203 198 198 202 208 216 218 215 215 217 221 226 233 237 237 236 234 232 235 243 247 247 244 240 237 233
262 262 262 262 262 262 262 262 263 263 264 265 265 266 267 267 267 266 266 266 268 270 271 269 267 271 277 282 287 292 299 307 315 320 326 340 347 350 358 6 14 19 23 26 27 26 24 21 20 22 28 34 38 37 35 38 45 139 181 193 195 198 198 187 192 210 213 220 221 216 215 215 216 219 222 224 222 218 215 216 228 245 247 238 223 209 202 196
263 263 263 263 263 263 264 264 264 264 264 265 265 265 266 267 267 267 267 267 267 268 269 270 268 267 269 274 279 283 288 292 296 304 310 320 331 336 340 348 357 6 13 20 24 25 24 22 19 20 23 30 37 38 35 36 44 82 149 176 185 189 191 186 194 207 205 214 220 211 204 202 198 195 192 191 188 178 164 157 191 205 209 209 195 186 184 180
263 263 263 263 263 264 264 264 264 264 265 265 265 265 265 265 266 267 267 268 268 268 268 268 269 267 266 268 271 277 281 282 284 288 296 304 311 318 326 330 338 348 358 8 18 22 23 22 20 19 21 26 34 40 37 35 39 54 92 128 148 162 175 184 188 188 188 196 204 199 187 179 168 156 149 144 136 127 137 170 185 186 187 194 191 186 185 182
263 263 263 263 263 263 263 263 263 264 264 265 265 265 265 265 265 265 265 266 267 268 269 269 268 267 266 265 266 271 273 273 277 278 282 292 297 302 309 315 321 328 339 350 4 16 21 22 20 19 20 23 31 39 40 36 37 44 64 98 124 143 156 163 165 169 180 183 188 184 168 150 132 124 132 136 135 146 172 187 187 184 187 197 204 204 205 196
262 262 262 262 262 262 262 262 262 262 262 263 264 264 264 265 265 265 265 264 264 265 267 268 268 268 267 265 264 265 267 267 270 272 272 278 284 289 294 301 306 312 320 330 344 359 12 19 20 19 20 22 27 37 43 40 37 42 54 79 115 133 137 137 144 165 178 174 173 166 144 124 118 126 146 152 155 165 174 175 169 170 184 212 234 240 227 194
263 263 263 262 262 262 261 261 261 261 261 261 262 262 262 263 264 265 265 265 264 263 263 265 266 267 267 266 264 264 264 262 263 265 266 266 270 277 281 287 293 298 305 313 325 338 354 9 17 17 18 22 25 33 43 45 40 42 51 66 94 116 124 132 147 166 166 156 152 142 126 124 131 138 150 157 161 162 159 150 136 130 179 252 251 234 201 160
265 265 264 263 263 262 262 261 261 261 260 260 260 260 261 261 261 262 263 264 263 263 262 262 263 264 265 264 264 264 262 259 259 260 262 261 261 265 272 276 281 287 293 299 308 319 332 350 7 13 14 20 24 28 39 48 47 43 47 61 82 107 123 134 149 161 155 141 134 126 125 137 140 132 136 151 153 147 139 128 115 115 196 214 210 189 161 138
267 266 265 265 264 264 263 262 262 261 261 260 260 260 260 259 259 259 259 260 261 262 262 261 262 262 263 263 264 262 260 259 258 258 258 259 259 260 264 268 272 278 283 288 294 302 311 324 343 3 9 13 21 25 31 45 53 50 47 52 69 93 117 131 143 152 147 137 132 129 135 146 141 130 133 146 145 136 130 125 119 132 157 169 174 162 145 132
267 267 267 266 265 265 264 263 263 262 262 261 261 260 260 259 258 258 257 258 258 259 260 260 260 261 261 262 262 259 258 258 258 256 256 257 258 258 260 262 266 270 275 279 283 288 294 303 315 337 355 3 13 23 26 33 49 58 54 50 57 78 103 120 132 138 138 138 137 136 138 141 136 131 135 143 139 132 133 124 118 127 138 148 151 143 136 129
266 266 266 266 266 265 265 264 263 262 262 261 261 261 260 260 259 257 257 256 256 256 257 258 259 260 260 261 260 258 258 258 257 257 256 255 256 256 257 259 261 264 268 272 276 279 282 286 293 306 325 338 353 12 25 27 31 52 64 58 54 67 89 103 113 119 125 135 139 138 134 130 126 129 135 138 135 134 136 125 119 125 131 135 134 130 128 125
266 266 266 266 266 266 265 265 264 263 262 261 261 260 260 260 259 258 257 256 255 255 254 255 256 258 258 258 258 258 258 258 256 255 255 254 253 253 254 256 258 259 262 266 270 272 275 277 280 285 294 305 319 342 12 26 23 29 58 71 64 64 80 92 101 107 114 124 128 127 122 117 116 123 130 134 137 140 137 127 122 125 127 129 127 125 124 123
267 267 266 266 265 265 265 265 264 264 263 262 261 260 260 259 259 258 257 256 254 254 253 253 253 255 256 256 257 258 257 257 254 252 253 253 252 251 251 253 255 256 258 260 264 266 269 271 273 273 275 281 288 299 324 4 21 16 26 65 78 74 78 89 96 102 108 112 113 111 108 106 111 122 129 134 143 145 138 129 125 124 124 125 125 124 124 123
267 266 266 266 265 265 265 264 264 264 263 263 262 261 260 259 259 258 257 256 254 253 253 252 252 252 253 253 254 256 256 255 252 249 248 249 249 249 248 249 252 254 254 256 259 261 263 265 268 268 268 268 272 276 281 297 342 9 4 16 70 84 82 87 95 102 107 107 104 103 101 104 115 126 131 139 147 148 144 136 131 128 125 125 125 126 126 126
267 267 266 265 265 264 264 264 263 263 263 262 262 261 261 260 259 258 257 256 255 254 253 252 251 250 250 250 251 253 254 253 251 248 246 246 246 247 246 246 248 251 252 252 254 256 257 259 263 264 263 260 263 267 267 269 275 292 336 340 353 74 90 86 93 104 109 107 103 101 103 110 122 130 133 140 146 149 151 148 143 139 136 136 137 137 135 132
270 269 268 266 266 265 264 263 263 262 262 261 261 261 261 260 260 259 258 256 255 254 253 252 251 250 249 249 248 249 251 252 250 248 245 244 243 244 244 244 244 247 249 250 251 253 254 255 257 259 258 257 258 260 261 260 260 259 263 296 310 320 98 107 103 105 110 109 107 106 109 115 124 132 135 135 136 142 150 153 153 152 151 151 152 153 153 151
273 271 270 268 267 266 265 264 263 263 262 261 260 260 260 259 259 259 258 257 255 253 252 252 251 250 248 248 247 247 249 250 249 247 245 244 241 241 242 242 242 244 246 248 249 250 251 252 253 254 255 254 254 256 257 257 255 252 250 249 269 284 271 207 170 175 164 118 113 112 113 117 124 133 138 136 133 135 142 149 154 159 162 161 158 159 160 160
277 275 273 270 268 267 266 265 264 263 263 262 261 260 259 259 258 258 258 258 256 254 252 251 251 250 248 247 247 246 247 247 247 246 245 244 241 238 238 239 240 242 244 246 247 249 249 250 251 251 251 251 251 254 254 253 253 250 246 242 242 254 265 257 225 201 202 173 135 124 120 120 123 132 140 148 144 140 143 146 151 158 165 163 157 153 152 152
284 281 278 275 272 269 267 266 264 263 263 263 262 261 260 259 258 257 257 257 256 255 254 252 250 250 249 247 246 246 246 246 246 245 244 243 241 238 236 236 238 239 242 245 246 248 248 248 250 249 248 248 249 251 251 250 250 250 247 241 238 240 249 256 249 227 214 201 172 148 138 132 131 136 146 156 155 150 151 150 150 154 160 162 157 151 148 147
294 291 287 284 279 275 273 270 267 265 263 262 262 262 261 260 260 259 257 257 256 254 254 253 251 250 250 248 245 244 245 246 245 244 243 242 241 239 236 234 234 235 239 243 246 247 246 247 249 249 247 247 246 247 249 249 248 249 248 243 238 237 238 245 249 243 231 216 195 176 164 157 153 153 158 162 163 159 161 162 161 161 160 166 167 162 158 156
300 298 296 293 289 285 281 278 274 271 267 264 262 261 261 260 260 259 258 258 257 255 253 253 251 250 249 248 246 244 244 245 245 243 243 242 241 239 237 234 233 232 234 239 244 246 245 247 250 249 247 247 246 247 248 248 247 246 248 246 242 238 234 239 243 245 244 230 212 199 186 182 178 174 172 171 171 171 175 179 179 181 180 181 184 181 178 173
299 298 297 296 295 293 291 288 285 280 275 270 266 263 261 260 259 259 259 258 259 257 254 252 252 250 249 248 248 245 242 243 244 243 242 242 241 239 237 236 233 231 231 235 240 244 245 248 251 250 247 247 246 246 246 247 246 244 245 246 243 239 235 237 239 240 244 240 228 218 205 200 198 196 193 187 183 181 183 186 187 190 192 193 195 194 193 190
295 295 294 294 294 293 293 292 291 289 286 281 274 268 264 261 259 258 258 258 259 259 256 253 252 250 249 248 247 246 243 241 242 243 242 241 240 240 238 236 235 232 231 232 235 241 244 247 250 248 245 245 244 244 245 245 245 243 242 242 243 241 237 237 237 235 238 240 237 229 219 214 212 211 212 207 202 197 193 194 194 195 195 196 199 203 204 206
291 292 293 292 292 291 291 290 291 291 290 288 284 278 273 268 264 260 258 257 258 260 258 255 252 250 249 247 246 246 245 242 240 241 242 241 240 240 239 237 236 233 232 231 232 238 242 244 248 248 243 243 243 243 243 243 243 242 239 239 239 239 237 237 237 236 235 236 238 237 230 227 224 221 222 222 219 215 209 206 205 203 202 202 205 208 211 215
288 289 290 290 290 290 289 288 288 288 287 288 288 287 283 278 272 267 262 259 259 260 259 256 254 251 249 247 246 245 245 243 240 239 240 241 239 239 239 237 237 234 232 231 230 233 239 241 245 246 242 240 241 240 241 242 242 242 241 239 238 238 238 238 239 239 236 233 240 244 239 233 233 232 230 228 226 225 222 218 215 213 212 212 211 212 214 216
285 286 287 287 288 288 288 287 287 285 284 284 285 287 287 286 282 276 271 268 266 263 259 257 256 253 251 248 246 245 245 244 242 239 239 240 239 239 238 237 237 235 232 232 230 230 236 239 243 245 242 239 240 240 242 244 245 246 245 242 240 239 239 240 240 240 237 232 238 246 244 238 237 239 237 234 234 235 231 227 225 222 221 221 218 215 215 217
285 284 284 285 285 285 285 285 285 284 283 283 282 283 285 286 286 284 282 281 277 270 262 257 255 254 253 251 248 246 245 244 243 241 239 239 238 238 238 237 237 236 233 232 231 229 234 238 242 245 244 240 240 241 243 245 247 249 249 246 245 244 242 241 240 240 239 235 238 244 245 242 239 239 239 238 241 243 239 236 234 231 233 234 229 224 225 226
284 284 283 283 284 284 284 284 283 282 282 281 280 281 283 284 285 287 288 286 283 277 269 261 255 253 253 253 252 249 247 245 243 241 240 239 238 237 238 237 236 236 235 234 232 230 232 237 240 244 245 242 240 241 242 244 247 250 251 248 247 247 245 244 242 243 242 239 239 243 245 244 241 238 240 243 245 244 242 241 240 241 246 246 238 232 234 237
283 283 283 283 283 283 284 283 282 280 280 280 279 280 281 281 284 287 286 285 283 280 274 267 259 255 253 253 253 252 250 247 243 241 239 239 239 237 237 237 236 236 235 234 233 230 230 234 237 240 243 242 240 239 241 243 245 249 250 249 247 247 246 245 244 243 242 238 239 241 241 243 243 239 240 246 244 241 244 247 247 249 253 251 245 241 241 245
282 282 282 282 282 283 283 283 282 280 279 279 279 279 279 281 283 284 282 281 282 281 277 271 265 259 255 253 251 250 250 249 246 242 239 238 238 237 237 237 236 236 235 234 234 231 229 232 234 236 240 241 240 239 240 242 243 246 249 247 245 244 242 241 240 239 238 236 239 239 236 241 245 240 236 242 244 241 246 251 252 250 250 249 248 250 250 251
281 280 280 280 280 281 282 282 282 280 278 277 278 278 279 281 282 280 279 279 280 280 279 275 270 264 257 253 251 250 249 249 249 246 242 238 237 237 237 237 236 235 234 233 233 232 231 232 234 235 239 240 239 238 238 239 240 242 244 243 241 239 238 236 234 233 232 231 236 239 234 238 245 241 234 239 245 245 245 248 250 248 248 250 253 256 256 256
280 279 279 278 278 279 280 281 280 279 278 276 276 277 279 281 280 278 277 278 277 278 278 276 273 269 262 256 252 250 249 248 248 248 245 241 238 236 236 236 236 235 234 233 233 232 231 232 233 234 237 239 239 238 236 237 238 240 242 243 242 242 239 237 235 232 231 230 234 238 234 236 244 242 236 238 242 243 243 246 249 250 252 255 257 258 259 259
280 279 278 277 277 277 278 279 278 278 277 275 275 276 278 278 277 276 276 276 275 275 276 276 274 271 268 262 255 251 249 247 247 247 247 244 240 237 236 235 236 236 234 232 232 232 231 231 231 233 235 237 239 239 237 236 235 237 240 242 243 242 239 239 239 236 236 235 235 238 236 238 244 244 239 239 240 240 242 245 249 251 254 256 256 258 259 259
279 278 277 276 276 276 276 276 276 276 276 275 275 275 275 275 275 275 274 274 273 272 273 274 274 273 271 268 262 256 250 247 246 246 247 246 243 240 237 235 235 235 235 232 231 231 231 231 230 231 233 234 237 238 237 236 235 235 238 238 238 238 237 237 239 237 239 239 237 238 238 240 246 246 240 240 240 240 242 244 248 250 252 254 255 257 258 257
279 278 277 276 275 274 275 275 275 274 274 274 275 275 274 273 273 273 272 272 271 270 271 272 273 273 272 270 267 262 255 249 245 245 246 246 244 242 239 237 235 235 235 233 231 230 231 231 230 230 233 233 234 237 236 236 236 236 238 238 238 239 238 238 239 237 238 238 237 238 239 242 247 246 241 242 242 242 243 244 246 247 250 253 255 255 256 257
277 277 276 275 274 273 273 273 273 273 273 274 274 274 272 272 271 271 271 271 270 269 269 269 270 270 271 270 268 265 261 253 246 244 244 244 245 244 241 239 237 235 234 233 232 230 230 231 230 229 232 232 233 236 237 237 237 236 237 239 240 241 240 239 239 238 237 235 234 236 239 243 247 245 241 242 243 243 244 244 245 246 248 251 253 254 255 257
276 275 275 274 274 273 272 271 271 272 272 273 273 272 271 270 270 270 270 269 269 268 266 266 267 268 268 269 268 266 264 259 250 245 243 243 243 243 242 241 238 237 235 233 232 230 229 230 230 229 231 232 232 235 237 238 238 237 237 238 239 240 241 241 240 239 239 237 236 236 238 241 245 245 243 244 245 246 247 247 247 248 248 249 251 253 254 255
275 275 274 274 273 273 272 271 271 271 271 272 272 272 271 269 268 268 268 267 267 266 265 264 264 265 266 267 267 266 264 262 255 248 244 243 242 242 242 241 240 238 237 234 232 231 229 229 230 229 230 232 232 233 235 236 237 237 236 236 237 238 239 239 238 238 239 237 235 234 234 237 244 248 247 248 249 250 250 251 250 250 249 250 251 252 253 254
276 275 275 274 273 273 272 272 271 270 270 270 271 271 269 267 266 265 265 265 265 264 263 262 261 262 263 264 265 264 263 262 258 251 245 242 242 242 241 241 241 240 238 236 234 232 230 229 229 229 229 230 231 231 232 234 235 235 234 234 235 236 237 237 236 236 236 234 232 230 229 232 241 248 249 249 249 249 250 251 250 250 250 250 251 253 254 255
275 274 274 273 273 273 272 271 270 270 269 269 268 268 267 266 264 263 263 263 262 261 261 260 259 259 260 261 262 262 262 261 259 255 249 244 242 242 241 240 241 241 239 238 235 233 231 230 230 230 229 229 230 230 230 232 233 234 234 234 234 236 237 238 237 235 235 233 231 231 230 230 235 241 246 249 249 248 249 250 250 250 250 251 252 253 255 256
272 272 271 271 271 271 270 270 269 269 268 267 266 266 265 264 262 261 260 260 260 259 258 258 257 257 257 258 259 260 261 261 260 257 253 247 244 243 242 240 240 241 240 239 237 234 233 231 230 230 229 229 230 230 230 232 234 235 235 235 235 236 237 238 237 236 235 234 234 233 231 230 232 236 242 247 250 251 251 251 251 251 251 252 253 254 255 256
269 269 268 268 267 267 267 267 267 266 266 265 265 264 262 261 260 259 258 258 258 257 257 256 255 255 255 256 257 258 259 260 259 258 255 251 247 244 242 240 239 239 240 240 238 236 234 232 230 230 230 229 230 231 231 232 234 235 235 235 235 236 236 236 236 236 235 235 235 235 232 231 232 235 239 244 248 251 252 252 251 252 252 253 254 256 256 257
267 266 266 265 265 264 263 263 263 263 263 263 263 262 261 259 258 257 256 256 256 256 255 254 254 253 253 253 254 255 257 258 258 257 255 252 249 245 242 240 239 239 239 240 239 237 235 233 232 231 230 230 230 230 231 231 232 233 233 233 233 234 234 234 235 235 234 233 233 233 231 230 232 235 238 241 244 247 249 251 251 252 252 253 255 256 258 259
265 264 264 264 263 262 261 261 260 260 260 260 260 259 259 258 256 254 254 254 253 253 253 253 252 251 250 250 251 252 254 255 255 255 255 253 251 248 244 240 239 239 238 239 239 239 237 234 232 232 230 230 230 229 229 230 231 231 232 232 232 232 232 232 233 233 233 232 232 231 230 228 230 232 235 239 242 243 245 248 249 250 251 252 254 256 258 260
265 263 262 262 261 261 260 259 258 257 257 257 256 256 256 255 254 252 251 251 251 251 251 251 251 250 248 248 248 249 251 253 254 255 254 254 252 250 246 242 240 239 239 238 238 239 239 237 234 233 231 230 229 229 229 229 230 230 231 232 232 232 232 232 231 231 231 231 230 229 228 226 226 227 230 235 240 241 243 245 247 249 250 251 252 254 256 258
265 263 262 261 260 259 258 257 256 255 254 254 254 253 253 252 251 250 248 248 248 249 249 249 248 247 246 245 246 246 248 250 252 253 252 252 252 250 247 243 240 240 239 238 238 239 239 238 236 234 232 231 230 230 229 229 230 230 230 231 232 233 233 233 232 231 230 230 228 227 227 226 224 225 228 232 237 239 241 244 246 248 249 250 252 253 254 256
265 264 263 261 260 259 258 257 256 255 254 253 252 251 250 250 249 248 246 246 246 246 246 246 245 245 245 244 244 245 246 247 249 251 251 251 251 250 248 244 240 239 239 238 238 238 238 239 238 236 234 232 231 231 230 229 230 230 230 231 232 233 233 234 233 232 232 231 229 228 228 227 226 226 228 231 235 238 241 243 245 247 249 250 251 252 253 255
267 265 264 262 261 260 258 258 257 255 253 252 251 250 249 248 248 246 244 243 242 242 243 243 244 244 244 243 242 242 243 245 247 249 250 250 250 250 249 246 241 239 238 238 237 237 237 238 239 237 235 233 232 231 230 230 230 230 230 230 231 232 233 234 235 234 234 234 233 231 229 228 228 228 230 232 234 237 240 242 244 246 248 250 251 252 253 254
267 265 264 262 261 259 258 257 256 255 253 252 250 249 248 247 246 245 242 240 239 240 240 241 241 241 241 240 240 240 241 243 244 246 248 248 248 249 248 246 243 239 238 237 236 236 235 236 238 238 236 234 232 231 230 230 230 230 230 230 231 232 234 235 236 236 236 235 235 233 232 230 228 228 231 233 235 237 240 242 244 245 247 249 251 252 253 254
Height
10997 10997 10997 10998 10998 10998 10998 10998 10998 10999 10999 10999 10999 11000 11000 11000 11001 11001 11001 11001 11001 11001 11001 11000 11000 11000 11001 11001 11001 11001 11000 11000 10999 10999 10997 10996 10995 10995 10994 10993 10992 10990 10989 10988 10986 10985 10984 10982 10981 10980 10978 10976 10974 10972 10971 10970 10970 10972 10973 10974 10974 10975 10976 10977 10978 10980 10981 10981 10982 10983 10984 10985 10985 10986 10987 10988 10989 10989 10989 10990 10990 10990 10991 10991 10991 10991 10992 10992
10995 10995 10995 10996 10996 10996 10996 10997 10997 10997 10997 10997 10997 10998 10998 10999 10999 10999 10999 11000 11000 11000 11000 10999 10999 11000 11000 11000 11001 11001 11000 11000 11000 10999 10998 10997 10996 10995 10994 10994 10993 10991 10990 10989 10987 10986 10984 10983 10982 10980 10979 10977 10975 10972 10970 10969 10969 10970 10971 10972 10973 10974 10975 10976 10977 10979 10979 10980 10980 10981 10982 10983 10984 10985 10985 10986 10987 10988 10988 10988 10988 10988 10989 10989 10989 10989 10990 10990
10992 10993 10993 10993 10994 10994 10994 10995 10995 10995 10995 10995 10995 10996 10996 10997 10997 10997 10997 10997 10998 10998 10999 10999 10998 10998 10999 10999 11000 11000 11000 10999 10999 10999 10999 10998 10996 10996 10995 10994 10993 10992 10991 10990 10988 10987 10985 10984 10982 10981 10980 10978 10975 10973 10970 10969 10968 10969 10970 10970 10972 10973 10974 10975 10976 10977 10978 10979 10979 10980 10981 10982 10982 10983 10984 10985 10985 10986 10986 10986 10987 10987 10987 10988 10988 10988 10988 10988
10989 10990 10990 10991 10991 10991 10992 10992 10993 10993 10993 10993 10993 10993 10994 10995 10995 10995 10995 10995 10995 10996 10997 10998 10998 10997 10998 10998 10999 11000 11000 10999 10999 10998 10999 10998 10997 10996 10995 10994 10994 10993 10992 10991 10990 10988 10986 10985 10983 10982 10981 10978 10976 10974 10971 10969 10968 10968 10968 10969 10970 10973 10974 10974 10975 10976 10977 10978 10978 10979 10980 10981 10981 10982 10982 10983 10984 10984 10985 10985 10985 10986 10986 10986 10987 10987 10987 10987
10986 10986 10987 10987 10988 10988 10989 10989 10990 10990 10991 10991 10991 10991 10992 10992 10993 10993 10994 10994 10994 10994 10995 10996 10997 10996 10996 10997 10998 10999 10999 10999 10999 10998 10998 10998 10997 10996 10996 10995 10994 10993 10993 10992 10991 10989 10988 10986 10984 10983 10981 10979 10977 10975 10972 10970 10968 10967 10967 10968 10969 10971 10973 10974 10975 10975 10976 10977 10978 10978 10979 10980 10980 10981 10981 10982 10983 10983 10984 10984 10984 10985 10985 10986 10986 10986 10986 10987
10982 10983 10983 10984 10984 10985 10985 10986 10987 10987 10987 10987 10988 10988 10989 10989 10990 10990 10991 10992 10992 10992 10992 10993 10994 10995 10995 10995 10997 10998 10999 10999 10998 10998 10997 10997 10997 10997 10996 10995 10994 10993 10993 10992 10991 10990 10989 10988 10986 10984 10982 10981 10978 10976 10974 10972 10970 10968 10968 10968 10969 10971 10972 10974 10975 10975 10976 10977 10978 10978 10979 10979 10980 10980 10981 10982 10982 10982 10982 10983 10983 10984 10985 10986 10986 10986 10986 10986
10978 10979 10979 10980 10980 10981 10982 10982 10983 10984 10984 10984 10984 10985 10986 10986 10987 10988 10988 10989 10989 10989 10989 10990 10991 10993 10993 10994 10995 10996 10998 10998 10998 10997 10997 10996 10996 10996 10995 10995 10994 10993 10993 10992 10992 10991 10990 10989 10987 10986 10984 10982 10980 10977 10975 10973 10971 10970 10969 10969 10969 10971 10972 10973 10974 10975 10976 10977 10978 10978 10979 10979 10980 10980 10981 10981 10981 10982 10982 10983 10984 10985 10985 10986 10986 10986 10986 10986
10974 10975 10975 10975 10976 10977 10977 10978 10979 10980 10980 10980 10980 10981 10982 10983 10983 10984 10985 10986 10987 10987 10986 10987 10988 10989 10990 10992 10993 10994 10996 10996 10996 10997 10996 10996 10995 10995 10995 10994 10993 10993 10992 10992 10991 10991 10990 10989 10988 10987 10985 10984 10981 10979 10977 10975 10973 10972 10971 10970 10971 10971 10972 10974 10974 10975 10976 10977 10978 10978 10979 10979 10979 10980 10981 10981 10982 10982 10983 10984 10985 10985 10985 10986 10986 10985 10985 10985
10970 10970 10971 10971 10972 10972 10973 10974 10975 10975 10976 10976 10976 10977 10978 10979 10979 10980 10981 10983 10984 10984 10984 10983 10984 10985 10987 10989 10990 10993 10994 10993 10994 10995 10995 10995 10994 10994 10994 10993 10993 10992 10992 10991 10991 10991 10990 10990 10989 10988 10986 10985 10983 10981 10979 10977 10976 10974 10973 10972 10973 10973 10973 10974 10975 10976 10976 10977 10978 10978 10978 10979 10979 10980 10981 10982 10982 10983 10984 10984 10984 10985 10985 10985 10985 10985 10985 10984
10965 10965 10966 10966 10967 10967 10968 10969 10970 10971 10971 10971 10972 10972 10974 10975 10976 10976 10977 10978 10980 10981 10981 10981 10981 10981 10983 10985 10987 10991 10992 10990 10992 10993 10993 10994 10993 10992 10992 10992 10992 10991 10991 10991 10990 10990 10990 10989 10989 10988 10987 10986 10985 10983 10981 10979 10978 10976 10975 10975 10974 10974 10974 10975 10976 10977 10977 10977 10978 10978 10978 10979 10980 10981 10982 10983 10983 10984 10984 10984 10984 10984 10984 10985 10985 10984 10984 10984
10959 10960 10960 10961 10962 10962 10963 10964 10965 10966 10966 10966 10967 10968 10969 10970 10971 10972 10973 10974 10975 10976 10977 10977 10977 10977 10979 10980 10984 10989 10987 10986 10989 10991 10992 10991 10991 10991 10990 10991 10991 10990 10990 10990 10990 10989 10989 10989 10989 10988 10987 10987 10986 10985 10984 10981 10980 10979 10978 10977 10976 10976 10975 10976 10977 10978 10978 10978 10978 10978 10978 10979 10979 10980 10982 10983 10983 10984 10984 10984 10983 10984 10984 10984 10984 10984 10984 10984
10953 10954 10954 10955 10956 10957 10957 10958 10960 10960 10961 10961 10962 10963 10964 10965 10966 10968 10969 10970 10971 10972 10973 10973 10974 10974 10974 10976 10981 10985 10982 10982 10987 10989 10989 10989 10989 10990 10989 10989 10989 10989 10989 10989 10989 10989 10989 10989 10988 10988 10988 10987 10987 10986 10985 10984 10982 10981 10980 10979 10978 10977 10977 10977 10979 10979 10979 10978 10978 10978 10978 10978 10979 10980 10981 10983 10983 10983 10984 10984 10983 10984 10984 10984 10984 10984 10984 10984
10946 10947 10948 10949 10949 10950 10951 10952 10953 10955 10955 10955 10956 10957 10958 10959 10961 10962 10964 10965 10966 10967 10968 10969 10970 10970 10971 10973 10977 10978 10976 10979 10983 10985 10986 10987 10987 10988 10987 10987 10987 10988 10987 10987 10987 10988 10988 10988 10988 10988 10987 10987 10987 10987 10986 10985 10984 10982 10981 10981 10980 10979 10978 10979 10980 10980 10979 10978 10978 10978 10978 10978 10978 10980 10981 10982 10983 10984 10984 10984 10984 10984 10984 10984 10984 10984 10984 10984
10939 10940 10941 10942 10942 10943 10944 10945 10946 10948 10949 10949 10950 10951 10952 10953 10954 10956 10958 10960 10961 10962 10963 10964 10965 10966 10967 10970 10971 10971 10972 10975 10980 10982 10983 10984 10985 10986 10986 10985 10985 10986 10986 10985 10986 10986 10986 10986 10987 10987 10987 10987 10987 10987 10987 10986 10985 10984 10983 10982 10982 10981 10980 10980 10980 10980 10979 10979 10979 10978 10978 10978 10978 10979 10981 10982 10983 10984 10985 10985 10984 10984 10985 10984 10984 10984 10984 10984
10932 10933 10934 10935 10935 10936 10936 10937 10939 10940 10941 10942 10943 10944 10945 10946 10947 10949 10952 10954 10955 10956 10958 10959 10960 10961 10963 10966 10965 10966 10968 10971 10976 10978 10979 10980 10981 10983 10983 10983 10983 10983 10984 10983 10983 10984 10985 10985 10986 10986 10986 10986 10986 10986 10986 10986 10986 10985 10984 10983 10983 10983 10981 10981 10981 10981 10980 10980 10979 10978 10977 10977 10978 10980 10981 10983 10984 10985 10985 10985 10985 10985 10986 10986 10985 10985 10985 10985
10924 10925 10926 10928 10928 10929 10929 10929 10930 10932 10933 10934 10935 10936 10937 10939 10940 10942 10945 10947 10949 10950 10952 10953 10955 10956 10958 10961 10961 10962 10964 10967 10971 10974 10974 10975 10977 10979 10980 10980 10981 10981 10981 10981 10981 10982 10983 10983 10984 10985 10985 10985 10985 10985 10986 10986 10986 10985 10985 10984 10984 10984 10983 10982 10982 10982 10981 10981 10980 10978 10977 10977 10978 10980 10982 10983 10984 10985 10986 10986 10986 10986 10987 10987 10987 10987 10986 10986
10916 10917 10918 10919 10920 10921 10921 10922 10923 10924 10925 10925 10926 10928 10929 10931 10932 10934 10937 10940 10942 10944 10945 10947 10949 10951 10952 10955 10957 10957 10958 10961 10965 10968 10969 10971 10973 10975 10976 10977 10978 10978 10979 10979 10978 10979 10980 10981 10981 10983 10984 10984 10984 10984 10984 10985 10985 10985 10985 10985 10984 10983 10983 10983 10983 10983 10983 10981 10980 10978 10977 10977 10980 10982 10983 10983 10985 10986 10986 10987 10987 10987 10988 10988 10988 10988 10988 10987
10909 10909 10910 10911 10912 10913 10912 10913 10914 10915 10916 10917 10917 10919 10921 10922 10924 10926 10928 10931 10934 10936 10938 10940 10942 10944 10946 10949 10952 10952 10952 10954 10958 10962 10964 10966 10968 10970 10972 10974 10975 10975 10975 10976 10975 10976 10977 10978 10979 10980 10981 10982 10983 10983 10983 10983 10984 10984 10984 10984 10984 10983 10983 10983 10984 10984 10983 10982 10979 10977 10977 10978 10981 10983 10983 10984 10985 10985 10986 10987 10987 10988 10988 10988 10989 10989 10989 10988
10902 10902 10903 10904 10905 10905 10904 10905 10906 10906 10907 10908 10909 10910 10912 10913 10915 10917 10918 10921 10925 10928 10931 10933 10935 10937 10939 10943 10946 10946 10946 10948 10952 10956 10959 10961 10964 10966 10968 10969 10971 10971 10971 10972 10972 10972 10974 10975 10976 10976 10978 10980 10981 10981 10982 10982 10982 10983 10983 10983 10983 10983 10983 10983 10983 10984 10984 10982 10980 10977 10977 10978 10980 10983 10984 10984 10985 10985 10986 10987 10987 10988 10989 10989 10989 10989 10989 10989
10895 10895 10896 10897 10898 10898 10897 10897 10898 10898 10898 10899 10900 10901 10903 10904 10906 10908 10908 10911 10915 10919 10923 10925 10926 10928 10932 10936 10938 10939 10940 10941 10945 10950 10953 10956 10959 10961 10963 10965 10966 10967 10968 10968 10968 10968 10970 10972 10972 10973 10974 10977 10979 10979 10980 10980 10980 10981 10981 10982 10982 10982 10982 10982 10983 10983 10984 10983 10980 10978 10977 10978 10980 10982 10984 10985 10985 10986 10986 10986 10987 10988 10989 10989 10989 10989 10989 10989
10890 10889 10889 10890 10891 10892 10890 10890 10891 10890 10889 10890 10892 10893 10894 10895 10897 10899 10899 10901 10904 10909 10913 10917 10918 10919 10924 10929 10931 10932 10933 10934 10938 10944 10948 10950 10954 10957 10959 10961 10962 10964 10964 10964 10964 10965 10968 10969 10967 10968 10971 10973 10976 10977 10977 10978 10979 10979 10980 10981 10981 10981 10981 10982 10982 10982 10983 10982 10981 10980 10978 10978 10980 10982 10984 10986 10986 10986 10986 10987 10987 10988 10989 10989 10989 10989 10989 10989
10885 10884 10884 10884 10885 10885 10884 10884 10884 10883 10883 10883 10883 10885 10886 10886 10888 10890 10891 10891 10893 10899 10902 10907 10910 10909 10914 10921 10923 10925 10926 10927 10932 10937 10941 10943 10947 10951 10954 10956 10957 10959 10960 10961 10961 10962 10965 10965 10962 10964 10968 10970 10973 10974 10974 10976 10976 10977 10978 10979 10980 10980 10980 10981 10981 10981 10982 10982 10981 10980 10979 10978 10980 10981 10983 10985 10986 10986 10986 10986 10987 10987 10988 10989 10989 10989 10989 10989
10880 10879 10878 10878 10879 10880 10879 10878 10878 10877 10876 10876 10876 10877 10878 10879 10880 10881 10882 10881 10882 10889 10893 10896 10900 10901 10905 10910 10914 10918 10918 10919 10925 10929 10933 10936 10940 10944 10948 10950 10951 10954 10956 10957 10957 10958 10960 10959 10956 10960 10965 10967 10969 10969 10970 10973 10974 10974 10975 10976 10977 10978 10979 10979 10979 10980 10980 10981 10980 10980 10979 10978 10979 10981 10982 10984 10985 10985 10985 10986 10986 10987 10988 10988 10989 10989 10989 10989
10874 10873 10872 10872 10872 10874 10874 10873 10873 10871 10870 10870 10870 10869 10870 10872 10872 10872 10874 10873 10871 10878 10885 10886 10889 10893 10896 10899 10903 10909 10910 10911 10916 10921 10926 10930 10933 10937 10941 10943 10945 10949 10952 10952 10953 10954 10955 10953 10952 10957 10962 10964 10965 10966 10967 10969 10970 10971 10972 10973 10975 10976 10977 10977 10978 10978 10979 10979 10979 10978 10978 10978 10979 10980 10981 10982 10983 10984 10985 10985 10986 10986 10987 10988 10988 10988 10988 10988
10869 10867 10866 10865 10865 10867 10868 10867 10867 10866 10864 10864 10864 10863 10864 10864 10865 10865 10866 10866 10862 10866 10875 10877 10879 10883 10886 10889 10892 10897 10902 10904 10907 10913 10918 10921 10923 10928 10932 10935 10940 10944 10945 10946 10948 10948 10950 10949 10947 10952 10959 10961 10962 10962 10963 10964 10966 10968 10969 10970 10971 10973 10975 10975 10976 10976 10976 10977 10977 10977 10977 10978 10978 10979 10980 10981 10982 10983 10983 10984 10985 10985 10986 10987 10987 10987 10987 10987
10864 10862 10860 10859 10859 10859 10861 10862 10861 10860 10859 10858 10858 10858 10858 10858 10858 10858 10858 10859 10855 10855 10864 10869 10870 10873 10877 10880 10881 10884 10891 10896 10899 10904 10908 10911 10915 10919 10925 10929 10933 10937 10939 10941 10943 10943 10946 10946 10941 10947 10955 10956 10958 10959 10958 10959 10961 10964 10965 10966 10968 10970 10972 10972 10973 10974 10974 10975 10975 10975 10976 10976 10977 10978 10978 10979 10980 10981 10982 10983 10984 10984 10985 10985 10986 10986 10986 10986
10858 10857 10854 10852 10852 10851 10853 10855 10855 10855 10853 10852 10851 10852 10853 10852 10852 10851 10851 10853 10850 10846 10853 10859 10861 10863 10867 10870 10871 10872 10878 10885 10891 10895 10898 10901 10907 10911 10916 10921 10924 10929 10932 10935 10938 10939 10941 10939 10935 10941 10950 10952 10954 10955 10952 10953 10955 10957 10960 10962 10965 10967 10968 10969 10970 10971 10972 10973 10972 10972 10974 10975 10975 10976 10977 10978 10978 10979 10980 10981 10982 10983 10983 10984 10984 10984 10985 10985
10851 10851 10848 10845 10845 10844 10844 10847 10849 10848 10847 10846 10845 10845 10846 10846 10846 10845 10845 10847 10845 10840 10843 10848 10851 10854 10858 10860 10862 10863 10866 10873 10881 10887 10888 10891 10898 10902 10906 10912 10914 10918 10924 10926 10931 10933 10933 10932 10930 10934 10943 10947 10949 10948 10947 10948 10949 10951 10955 10959 10962 10963 10964 10965 10967 10968 10970 10971 10971 10970 10971 10973 10973 10975 10975 10976 10976 10977 10978 10980 10981 10981 10982 10982 10982 10983 10983 10983
10843 10844 10842 10838 10838 10837 10836 10838 10841 10840 10839 10839 10839 10839 10839 10839 10840 10839 10840 10841 10838 10834 10836 10839 10841 10844 10848 10851 10853 10855 10858 10862 10870 10876 10879 10882 10889 10892 10896 10902 10904 10908 10916 10918 10922 10926 10926 10927 10926 10927 10936 10943 10943 10942 10943 10944 10944 10945 10951 10956 10958 10960 10961 10962 10964 10965 10967 10969 10969 10968 10969 10970 10971 10972 10973 10973 10974 10975 10977 10978 10979 10979 10980 10980 10980 10981 10981 10981
10836 10836 10835 10832 10830 10829 10828 10830 10832 10831 10832 10832 10831 10832 10832 10833 10833 10833 10835 10833 10828 10827 10830 10832 10833 10835 10838 10842 10845 10848 10851 10854 10859 10865 10869 10873 10878 10882 10886 10891 10894 10900 10907 10911 10915 10921 10923 10923 10921 10921 10930 10936 10936 10937 10940 10940 10940 10941 10945 10952 10955 10957 10959 10960 10961 10962 10964 10967 10966 10965 10966 10968 10969 10970 10970 10971 10972 10974 10975 10975 10976 10977 10977 10978 10978 10979 10978 10978
10828 10828 10828 10826 10822 10821 10820 10822 10823 10823 10823 10824 10823 10824 10825 10827 10826 10828 10829 10823 10817 10821 10824 10824 10826 10828 10831 10835 10837 10840 10843 10846 10850 10855 10859 10862 10867 10872 10876 10880 10885 10891 10898 10903 10908 10914 10916 10916 10916 10917 10922 10927 10930 10933 10934 10934 10936 10936 10939 10947 10951 10953 10955 10957 10958 10960 10962 10965 10963 10962 10963 10965 10966 10966 10967 10968 10971 10972 10971 10971 10973 10974 10975 10976 10976 10976 10976 10976
10819 10819 10820 10819 10816 10812 10812 10813 10814 10815 10816 10815 10815 10816 10817 10820 10822 10823 10821 10813 10810 10815 10816 10817 10820 10822 10825 10828 10829 10832 10834 10836 10840 10845 10849 10852 10856 10862 10865 10869 10876 10881 10887 10893 10896 10901 10907 10907 10907 10910 10913 10917 10923 10927 10927 10929 10933 10931 10933 10941 10946 10948 10952 10954 10956 10957 10959 10961 10959 10958 10961 10962 10961 10963 10965 10966 10968 10968 10967 10968 10970 10971 10972 10973 10973 10973 10973 10973
10810 10810 10810 10811 10809 10804 10803 10804 10803 10805 10808 10806 10806 10808 10809 10813 10818 10816 10811 10805 10803 10806 10808 10810 10814 10815 10817 10820 10821 10823 10824 10825 10830 10834 10838 10842 10846 10851 10854 10859 10865 10871 10877 10881 10884 10891 10898 10897 10898 10903 10905 10908 10915 10920 10921 10925 10927 10925 10927 10935 10940 10943 10947 10949 10952 10953 10955 10956 10954 10953 10959 10959 10956 10959 10964 10963 10963 10965 10966 10966 10967 10968 10968 10968 10969 10970 10970 10970
10800 10800 10800 10801 10800 10797 10795 10794 10793 10794 10797 10798 10797 10798 10801 10807 10810 10806 10802 10799 10796 10797 10800 10803 10805 10807 10810 10812 10813 10815 10815 10818 10820 10823 10828 10833 10837 10841 10843 10847 10853 10858 10863 10869 10875 10883 10888 10890 10894 10899 10899 10901 10906 10911 10915 10917 10919 10919 10920 10925 10931 10936 10941 10943 10945 10947 10948 10950 10947 10948 10957 10956 10950 10955 10961 10960 10960 10963 10963 10962 10962 10963 10964 10965 10967 10968 10968 10968
10788 10789 10790 10789 10790 10789 10786 10784 10783 10782 10785 10788 10788 10789 10795 10800 10798 10795 10795 10793 10788 10788 10791 10793 10796 10799 10802 10805 10807 10807 10808 10811 10812 10813 10817 10823 10827 10831 10833 10836 10840 10844 10850 10859 10866 10870 10876 10882 10886 10889 10890 10892 10896 10901 10905 10907 10911 10913 10913 10917 10926 10932 10935 10935 10937 10940 10941 10943 10943 10945 10953 10951 10944 10950 10958 10958 10959 10960 10959 10958 10958 10959 10960 10962 10963 10964 10965 10965
10776 10776 10778 10779 10778 10777 10776 10774 10772 10771 10774 10776 10778 10783 10789 10789 10785 10785 10786 10784 10781 10781 10781 10783 10787 10791 10794 10796 10798 10799 10800 10802 10803 10804 10807 10812 10816 10821 10824 10826 10829 10832 10839 10848 10853 10858 10865 10870 10874 10878 10881 10884 10887 10889 10893 10898 10904 10906 10906 10913 10921 10924 10926 10929 10932 10935 10935 10938 10940 10942 10948 10945 10940 10947 10954 10954 10955 10955 10954 10954 10954 10956 10957 10958 10959 10960 10961 10962
10763 10763 10764 10767 10767 10765 10764 10763 10760 10759 10761 10763 10769 10777 10779 10777 10775 10774 10775 10775 10773 10773 10772 10775 10778 10781 10784 10787 10788 10791 10793 10794 10796 10797 10798 10801 10806 10810 10813 10815 10818 10820 10825 10834 10841 10847 10853 10856 10863 10869 10871 10874 10875 10875 10880 10889 10895 10898 10902 10909 10911 10912 10918 10923 10925 10928 10930 10934 10937 10937 10940 10939 10937 10945 10950 10948 10950 10950 10950 10951 10951 10952 10953 10953 10955 10956 10957 10957
10750 10748 10749 10752 10754 10752 10751 10750 10748 10748 10747 10751 10760 10766 10766 10765 10764 10763 10763 10763 10764 10764 10765 10767 10769 10770 10773 10776 10779 10783 10784 10785 10788 10789 10790 10792 10795 10799 10802 10804 10807 10809 10812 10820 10828 10835 10841 10845 10854 10861 10859 10862 10864 10863 10869 10880 10887 10893 10897 10900 10900 10904 10913 10916 10918 10923 10926 10930 10933 10932 10933 10933 10933 10940 10943 10943 10944 10945 10945 10947 10947 10948 10949 10949 10950 10951 10952 10953
10737 10734 10733 10736 10737 10738 10737 10736 10735 10733 10734 10740 10748 10752 10752 10752 10752 10751 10750 10751 10753 10756 10758 10758 10758 10760 10763 10765 10769 10773 10774 10776 10780 10781 10782 10784 10785 10789 10791 10793 10796 10798 10801 10808 10815 10823 10831 10833 10842 10849 10846 10849 10854 10856 10864 10876 10882 10887 10890 10892 10895 10900 10906 10908 10913 10919 10921 10925 10927 10926 10928 10928 10927 10931 10935 10936 10937 10939 10940 10942 10943 10944 10945 10945 10946 10946 10947 10948
10724 10720 10719 10719 10719 10720 10721 10721 10720 10720 10721 10727 10732 10735 10738 10739 10740 10739 10738 10739 10742 10746 10749 10748 10748 10750 10753 10754 10758 10763 10764 10767 10771 10773 10773 10776 10777 10778 10779 10781 10785 10787 10790 10797 10803 10811 10819 10822 10828 10835 10834 10838 10848 10854 10864 10871 10873 10877 10883 10886 10889 10893 10896 10900 10908 10914 10916 10920 10923 10922 10924 10923 10918 10920 10927 10929 10931 10933 10935 10937 10938 10939 10940 10941 10941 10941 10942 10943
10706 10704 10703 10703 10701 10701 10702 10703 10705 10705 10707 10712 10715 10718 10722 10725 10726 10726 10724 10725 10730 10735 10737 10738 10739 10740 10742 10744 10747 10751 10754 10757 10761 10764 10766 10767 10767 10767 10769 10770 10774 10777 10780 10786 10793 10800 10807 10811 10815 10821 10825 10832 10842 10851 10856 10857 10858 10865 10873 10876 10880 10884 10886 10891 10901 10908 10910 10916 10920 10920 10921 10918 10911 10913 10919 10923 10925 10927 10929 10931 10933 10934 10935 10935 10935 10936 10937 10938
10687 10686 10685 10684 10682 10681 10682 10685 10687 10688 10690 10696 10699 10700 10705 10710 10712 10712 10712 10713 10717 10722 10725 10727 10730 10730 10731 10734 10736 10739 10743 10746 10751 10755 10758 10759 10758 10758 10759 10760 10763 10767 10772 10777 10783 10787 10793 10799 10803 10809 10817 10825 10832 10839 10842 10842 10845 10851 10858 10865 10869 10872 10876 10883 10895 10901 10903 10910 10914 10914 10916 10914 10909 10909 10912 10915 10919 10921 10923 10925 10927 10928 10929 10930 10930 10930 10931 10933
10667 10667 10663 10663 10664 10662 10662 10666 10667 10668 10673 10679 10682 10683 10688 10693 10696 10698 10699 10699 10702 10707 10711 10715 10719 10719 10720 10723 10724 10727 10732 10736 10740 10746 10748 10750 10750 10749 10749 10751 10754 10758 10763 10767 10771 10775 10781 10790 10795 10799 10809 10816 10818 10822 10826 10829 10833 10838 10848 10857 10861 10867 10873 10880 10889 10892 10894 10902 10905 10906 10913 10912 10906 10903 10904 10906 10910 10913 10916 10919 10920 10922 10923 10924 10924 10925 10926 10928
10646 10646 10642 10642 10645 10643 10642 10644 10646 10649 10654 10658 10662 10667 10672 10676 10679 10682 10684 10685 10687 10691 10697 10703 10706 10707 10709 10711 10713 10716 10720 10725 10730 10735 10738 10741 10741 10739 10738 10742 10746 10749 10752 10755 10759 10766 10772 10780 10785 10789 10798 10803 10803 10809 10820 10826 10828 10834 10845 10853 10857 10864 10869 10873 10878 10880 10886 10895 10897 10902 10911 10909 10901 10899 10897 10898 10902 10905 10908 10912 10914 10916 10918 10918 10919 10920 10921 10923
10622 10623 10620 10619 10623 10625 10623 10622 10625 10629 10633 10638 10643 10649 10653 10657 10661 10665 10667 10670 10673 10676 10683 10689 10692 10695 10697 10699 10702 10705 10708 10714 10719 10722 10727 10731 10732 10730 10729 10733 10737 10739 10741 10744 10749 10758 10763 10769 10776 10780 10787 10794 10798 10807 10818 10822 10824 10830 10838 10845 10850 10855 10858 10863 10866 10869 10880 10890 10891 10897 10906 10903 10898 10898 10894 10891 10895 10898 10900 10904 10907 10910 10912 10913 10913 10914 10915 10918
10599 10599 10597 10594 10598 10603 10601 10601 10604 10607 10611 10618 10625 10628 10632 10638 10644 10647 10650 10655 10658 10661 10668 10674 10678 10682 10685 10688 10692 10694 10696 10702 10707 10710 10716 10719 10720 10719 10720 10725 10728 10729 10731 10734 10740 10748 10752 10759 10767 10772 10778 10786 10791 10798 10806 10808 10812 10818 10824 10830 10836 10840 10846 10851 10852 10859 10874 10880 10881 10890 10898 10896 10896 10899 10892 10887 10889 10892 10893 10896 10900 10902 10905 10907 10907 10908 10909 10911
10575 10575 10573 10571 10572 10575 10577 10578 10581 10586 10590 10597 10603 10606 10611 10618 10624 10629 10634 10638 10641 10645 10651 10658 10663 10669 10673 10676 10680 10683 10685 10689 10694 10699 10704 10707 10710 10710 10712 10716 10719 10720 10722 10726 10731 10737 10742 10750 10758 10761 10768 10775 10779 10785 10790 10794 10799 10805 10809 10816 10822 10826 10832 10836 10840 10853 10864 10866 10872 10883 10887 10888 10893 10895 10890 10883 10881 10885 10887 10888 10892 10895 10898 10901 10903 10903 10904 10904
10549 10549 10549 10548 10548 10548 10551 10555 10558 10563 10568 10572 10579 10586 10590 10596 10603 10610 10616 10620 10624 10629 10635 10642 10649 10655 10660 10664 10667 10671 10673 10676 10683 10689 10692 10696 10699 10700 10703 10707 10710 10712 10714 10717 10723 10729 10734 10741 10747 10751 10758 10764 10767 10772 10777 10782 10788 10792 10798 10805 10810 10815 10820 10824 10832 10844 10850 10854 10865 10874 10874 10879 10885 10886 10885 10879 10874 10877 10880 10881 10886 10890 10892 10895 10897 10899 10899 10899
10520 10521 10521 10523 10524 10522 10523 10528 10534 10539 10543 10548 10557 10564 10568 10574 10581 10588 10597 10604 10609 10614 10620 10627 10633 10639 10644 10649 10654 10659 10663 10666 10672 10677 10680 10684 10688 10689 10692 10698 10702 10703 10705 10710 10716 10722 10726 10732 10737 10741 10748 10754 10757 10762 10767 10773 10777 10781 10788 10796 10800 10805 10811 10817 10826 10835 10839 10844 10856 10861 10862 10870 10875 10875 10877 10873 10867 10870 10873 10875 10881 10884 10886 10889 10891 10893 10894 10894
10490 10491 10492 10495 10498 10497 10496 10500 10509 10516 10520 10526 10534 10541 10546 10552 10558 10567 10580 10590 10594 10597 10602 10608 10614 10621 10629 10637 10643 10649 10652 10655 10659 10664 10669 10674 10677 10678 10682 10688 10693 10695 10698 10703 10709 10713 10718 10723 10726 10732 10739 10744 10749 10753 10757 10761 10766 10771 10779 10786 10791 10796 10802 10809 10818 10827 10832 10839 10848 10851 10855 10865 10868 10866 10867 10864 10862 10865 10868 10872 10876 10877 10879 10883 10885 10887 10888 10889
10460 10462 10464 10467 10470 10472 10471 10474 10481 10491 10498 10503 10511 10519 10526 10531 10537 10550 10563 10570 10574 10577 10581 10589 10600 10611 10620 10626 10632 10636 10639 10643 10649 10654 10659 10664 10665 10667 10672 10678 10684 10688 10691 10696 10700 10704 10710 10714 10717 10722 10729 10735 10739 10741 10745 10749 10754 10758 10765 10774 10782 10788 10795 10803 10814 10822 10829 10835 10841 10845 10852 10861 10862 10859 10858 10857 10858 10860 10864 10868 10869 10870 10873 10876 10878 10880 10881 10883
10434 10436 10438 10441 10445 10446 10447 10450 10456 10465 10474 10481 10488 10498 10506 10511 10519 10530 10540 10547 10553 10559 10566 10577 10589 10599 10605 10609 10616 10623 10630 10636 10640 10643 10648 10652 10654 10658 10662 10667 10673 10680 10684 10687 10691 10696 10702 10705 10707 10712 10720 10725 10726 10728 10733 10738 10740 10747 10758 10769 10778 10785 10792 10800 10808 10816 10822 10827 10832 10840 10849 10853 10851 10850 10849 10850 10853 10856 10859 10862 10863 10864 10867 10869 10871 10873 10875 10876